User: anonymous   Login
Location: Ab? ar R?sh Ba?r?
(24.1861°N, 32.8847°E)
Time: 07:19:33
(UTC+00:00)
Language:

Tiangong - Orbit

View from above orbital plane
View from above orbital plane
View from above satellite
View from above satellite

Ground track
Ground track

The orbit data is extracted from the following two-line orbital elements,

1 48274U 21035A   24112.94667725  .00032488  00000-0  32983-3 0  9995
2 48274  41.4681  66.6423 0005664  56.0895 304.0483 15.64493327170297
Epoch (UTC): 21 April 2024 22:43:12
Eccentricity: 0.0005664
inclination: 41.4681°
perigee height: 371 km
apogee height: 378 km
right ascension of ascending node: 66.6423°
argument of perigee: 56.0895°
revolutions per day: 15.64493327
mean anomaly at epoch: 304.0483°
orbit number at epoch: 17029

The dashed part of the orbit path shows where the satellite is in the earth's shadow,  

DLR